Regional Weather Roundup
Issued by NWS

Home | Current Version | Previous Version | Graphics & Text | Print | Product List | Glossary On
Versions: 1 2 3 4 5 6 7 8 9 10 11 12 13 14 15 16 17 18 19 20 21 22 23 24 25 26 27 28 29 30 31 32 33 34 35 36 37 38 39 40 41 42 43 44 45 46 47 48 49 50
000
ASUS43 KMPX 291301
RWRMN
WEATHER ROUNDUP FOR MINNESOTA
NATIONAL WEATHER SERVICE TWIN CITIES/CHANHASSEN MN
800 AM CDT WED JUL 29 2015


NOTE: "FAIR" INDICATES FEW OR NO CLOUDS BELOW 12,000 FEET WITH NO
SIGNIFICANT WEATHER AND/OR OBSTRUCTIONS TO VISIBILITY. N/A MEANS
CURRENT SKY AND/OR WEATHER CONDITIONS ARE NOT AVAILABLE.

MNZ060>063-068>070-291400-
   Twin Cities Metro

CITY           SKY/WX    TMP DP  RH WIND       PRES   REMARKS
TWIN CITIES    MOSUNNY   68  50  52 W16G24    29.94S
ST PAUL        SUNNY     69  51  52 W15       29.94S
CRYSTAL        SUNNY     70  49  47 SW15G29   29.91F
BLAINE         SUNNY     70  50  49 SW14G23   29.92S
LAKEVILLE      SUNNY     66  52  59 W12G18    29.96S
EDEN PRAIRIE   SUNNY     66  53  63 SW13      29.95S
SOUTH ST PAUL  SUNNY     69  49  49 W15G22    29.94S
LAKE ELMO      FAIR      68  52  56 W12       29.94S
$$
MNZ001>005-007-008-013>017-022>024-027-028-291400-
   Northwest Minnesota

CITY           SKY/WX    TMP DP  RH WIND       PRES   REMARKS
BEMIDJI        CLOUDY    62  52  70 W18       29.68S
HALLOCK        CLOUDY    64  55  72 W22G29    29.58R
ROSEAU         CLOUDY    63  57  82 W14G28    29.54R
WARROAD        CLOUDY    61  57  88 W17G26    29.52R FOG
THIEF RVR FALL CLOUDY    63  54  72 W20G31    29.65R
CROOKSTON      CLOUDY    64  55  72 W23G35    29.69R
FOSSTON        CLOUDY    61  54  77 W17G24    29.70R
DETROIT LAKES  CLOUDY    63  52  67 W20G35    29.80R
MOORHEAD       SUNNY     64  52  63 W18G36    29.80R
PARK RAPIDS    CLOUDY    65  51  60 W24G38    29.76R
MAHNOMEN       CLOUDY    62  52  70 W21G30    29.73R
$$
MNZ006-009>011-018-025>026-291400-
   North Central Minnesota

CITY           SKY/WX    TMP DP  RH WIND       PRES   REMARKS
BAUDETTE       CLOUDY    60  56  86 SW13G21   29.54R
FLAG ISLAND    CLOUDY    63  59  88 SW20G29   29.45R
INTL FALLS     LGT RAIN  63  54  72 SW21G37   29.55S
WASKISH        CLOUDY    64  57  77 SW30G39   29.60R
BIG FORK       CLOUDY    64  54  68 SW17G26   29.65R
LONGVILLE      CLOUDY    64  52  63 SW17G25   29.73R
GRAND RAPIDS   CLOUDY    64  48  55 SW13G25   29.71R
CRANE LAKE     CLOUDY    63  52  67 SW9G23    29.61S
ORR            CLOUDY    63  50  63 SW14G21   29.60S
COOK           CLOUDY    63  54  72 SW12G21   29.64R
WALKER         CLOUDY    63  50  63 W21G31    29.71R
$$
MNZ012-019>021-037-291400-
   Northeast Minnesota

CITY           SKY/WX    TMP DP  RH WIND       PRES   REMARKS
DULUTH         PTSUNNY   66  50  56 W17G31    29.74R
ELY            CLOUDY    64  50  59 SW20G31   29.64R
HIBBING        CLOUDY    64  51  62 SW8G20    29.68R
EVELETH        CLOUDY    63  50  63 SW14G23   29.69R
DULUTH HARBOR  CLOUDY    68  54  60 SW21      29.74R
TWO HARBORS    CLOUDY    68  55  64 SW13G28   29.69S
SILVER BAY     CLOUDY    66  52  59 SW8G18    29.67S
GRAND MARAIS     N/A     59  53  80 W8G16     29.65S
G MARAIS ARPRT CLOUDY    61  48  63 SW10G24   29.67S
$$
MNZ029>031-032-039>041-046>048-054>057-064-291400-
   West Central Minnesota

CITY           SKY/WX    TMP DP  RH WIND       PRES   REMARKS
FERGUS FALLS   SUNNY     64  52  63 W20G31    29.86R
WHEATON        SUNNY     64  50  59 W20G28    29.93S
MORRIS         SUNNY     64  54  68 W13G21    29.92R
ALEXANDRIA     SUNNY     65  50  58 W20G29    29.90R
ELBOW LAKE     FAIR      64  50  61 W22G31    29.89R
WADENA         MOSUNNY   64  52  63 W18G32    29.80R
GLENWOOD       SUNNY     66  52  59 W18G30    29.92S
APPLETON       SUNNY     66  52  59 SW12      29.96R
BENSON         SUNNY     64  50  59 W12       29.95R
ORTONVILLE     SUNNY     64  48  55 W12G18    29.95S
MADISON        SUNNY     64  50  59 W13       29.99R
WILLMAR        FAIR      64  52  63 W18G25    29.97R
$$
MNZ033>034-036-042>043-049>051-058-059-291400-
   Central Minnesota

CITY           SKY/WX    TMP DP  RH WIND       PRES   REMARKS
ST CLOUD       SUNNY     68  49  50 W21G32    29.88S
SAUK CENTRE    FAIR      64  51  62 W23G29    29.89S
PAYNESVILLE    SUNNY     64  48  56 SW23G31   29.93R
AITKIN         CLOUDY    66  52  59 SW16G24   29.77R
PINE RIVER     CLOUDY    64  52  63 SW12G17   29.81R
BRAINERD       PTSUNNY   66  50  56 W22G29    29.80R
STAPLES        MOSUNNY   64  48  55 W18G31    29.82R
LONG PRAIRIE   FAIR      64  50  59 SW17G26   29.88R
LITTLE FALLS   SUNNY     64  46  52 W15G23    29.85S
LITCHFIELD     SUNNY     66  54  63 W12       29.95S
BUFFALO        SUNNY     68  49  51 SW12G17   29.94S
MAPLE LAKE     SUNNY     68  52  56 SW12G23   29.93S
$$
MNZ037-044-045-052-053-291400-
   East Central Minnesota

CITY           SKY/WX    TMP DP  RH WIND       PRES   REMARKS
PRINCETON      SUNNY     68  52  56 SW12G23   29.88S
MORA           SUNNY     64  50  59 SW12G21   29.86S
CAMBRIDGE      SUNNY     72  52  49 SW10G23   29.87R
RUSH CITY      SUNNY     67  51  55 SW14G20   29.87R
MOOSE LAKE     CLOUDY    64  50  59 SW16G23   29.77R
HINCKLEY       FAIR      66  52  59 SW17G24   29.84R
MCGREGOR       CLOUDY    64  52  63 W12G24    29.78R
$$
MNZ071>073-080-081-089-090-097-098-291400-
   Southwest Minnesota

CITY           SKY/WX    TMP DP  RH WIND       PRES   REMARKS
MONTEVIDEO     SUNNY     66  52  59 W14G21    29.99S
GRANITE FALLS  SUNNY     65  51  61 SW13G18   30.01R
CANBY          SUNNY     64  50  59 W13G21    30.03R
MARSHALL       SUNNY     66  46  48 W18G26    30.02S
REDWOOD FALLS  SUNNY     68  49  50 SW15G22   30.00R
OLIVIA         SUNNY     63  50  63 SW10      29.98R
PIPESTONE      SUNNY     61  52  72 W10       30.09R
WINDOM         SUNNY     64  54  68 W10       30.07R
WORTHINGTON    SUNNY     63  50  63 SW10      30.10S
JACKSON        SUNNY     64  54  68 W12       30.08S
TRACY          SUNNY     64  52  63 SW10G16   30.04S
SLAYTON        SUNNY     63  50  62 SW12      30.09R
$$
MNZ065>067-074>077-082>085-091>093-291400-
   South Central Minnesota

CITY           SKY/WX    TMP DP  RH WIND       PRES   REMARKS
MANKATO        SUNNY     64  52  63 W9        30.02R
NEW ULM        SUNNY     64  52  63 W13       30.01S
ST JAMES       SUNNY     66  55  68 SW9       30.05S
FAIRMONT       SUNNY     64  48  55 W10       30.05S
GLENCOE        SUNNY     65  55  68 SW9G16    29.97S
FARIBAULT      SUNNY     66  55  68 W9        30.00S
OWATONNA       SUNNY     64  54  68 SW10      30.02R
WASECA         SUNNY     63  55  77 SW9       30.04S
ALBERT LEA     SUNNY     66  54  63 W7G16     30.04S
$$
MNZ078>079-086>088-094>096-291400-
   Southeast Minnesota

CITY           SKY/WX    TMP DP  RH WIND       PRES   REMARKS
ROCHESTER      MOSUNNY   65  54  67 W14       30.03R
RED WING       SUNNY     70  52  52 W12G20    29.94S
STANTON        SUNNY     67  52  58 W10       29.97S
DODGE CENTER   SUNNY     63  55  77 W12       30.01S
WINONA         MOSUNNY   70  52  52 W7        29.97F
AUSTIN         SUNNY     66  54  63 W9        30.04R
PRESTON        MOSUNNY   65  54  65 W14       30.03S
$$
ABBREVIATIONS USED IN REMARKS
   TC - TEMPERATURES IN CELSIUS
  WCI - WIND CHILL INDEX
   HX - HEAT INDEX
  VSB - VISIBILITY
$$


USA.gov is the U.S. government's official web portal to all federal, state and local government web resources and services.